Change the Weather History Date:

Monday, September 23, 2013

  Actual Average (KITH) Record (KITH)
Temperature  
Mean Temperature 48 °F -  
Max Temperature 59 °F 66 °F 89 °F (1936)
Min Temperature 39 °F 45 °F 28 °F (1947)
Degree Days  
Heating Degree Days 17    
Moisture  
Dew Point 41 °F    
Average Humidity 74    
Maximum Humidity 93    
Minimum Humidity 49    
Precipitation  
Precipitation 0.00 in - - ()
Sea Level Pressure  
Sea Level Pressure 30.09 in    
Wind  
Wind Speed 5 mph (NW)    
Max Wind Speed 8 mph    
Max Gust Speed 17 mph    
Visibility 10 miles    
Events Rain    
Averages and records for this station are not official NWS values.
T = Trace of Precipitation, MM = Missing Value Source: NWS Daily Summary

Daily Weather History Graph

Daily Weather History Graph

Search for Another Location

Airport or City:

Trip Planner

Search our weather history database for the weather conditions in past years. The results will help you decide how hot, cold, wet, or windy it might be!

Date:

Astronomy

Sep. 23, 2013 Rise Set
Actual Time 6:56 AM EDT 7:03 PM EDT
Civil Twilight 6:28 AM EDT 7:31 PM EDT
Nautical Twilight 5:55 AM EDT 8:04 PM EDT
Astronomical Twilight 5:22 AM EDT 8:37 PM EDT
Moon 9:27 PM EDT (9/23) 11:20 AM EDT (9/23)
Length of Visible Light 13h 02m
Length of Day
12h 06m
Waning Gibbous, 81% of the Moon is Illuminated
Sep 23
Waning Gibbous
Sep 26
Last Quarter
Oct 4
New
Oct 11
First Quarter
Oct 18
Full

Hourly Weather History & Observations

Time (EDT) Temp. Dew Point Humidity Pressure Visibility Wind Dir Wind Speed Gust Speed Precip Events Conditions
12:53 AM 50.0 °F 41.0 °F 71% 30.02 in 10.0 mi Variable 5.8 mph - N/A   Overcast
1:53 AM 50.0 °F 41.0 °F 71% 30.02 in 10.0 mi WNW 6.9 mph - N/A   Overcast
2:53 AM 48.9 °F 41.0 °F 74% 30.03 in 10.0 mi NW 4.6 mph - N/A   Overcast
3:22 AM 48.2 °F 42.8 °F 82% 30.03 in 7.0 mi NW 8.1 mph - 0.00 in Rain Light Rain
3:44 AM 48.2 °F 44.6 °F 87% 30.03 in 10.0 mi NW 3.5 mph - 0.00 in   Overcast
3:53 AM 48.0 °F 44.1 °F 86% 30.04 in 8.0 mi NNW 4.6 mph - 0.00 in   Overcast
4:11 AM 48.2 °F 44.6 °F 87% 30.04 in 10.0 mi NW 3.5 mph - 0.00 in   Overcast
4:20 AM 48.2 °F 44.6 °F 87% 30.04 in 10.0 mi NNW 5.8 mph - 0.00 in   Overcast
4:30 AM 48.2 °F 44.6 °F 87% 30.04 in 10.0 mi NW 4.6 mph - 0.00 in   Overcast
4:53 AM 48.0 °F 44.1 °F 86% 30.06 in 10.0 mi NW 5.8 mph - 0.00 in   Overcast
5:53 AM 48.0 °F 42.1 °F 80% 30.06 in 10.0 mi NW 5.8 mph - N/A   Overcast
6:53 AM 48.0 °F 41.0 °F 77% 30.08 in 10.0 mi NNW 4.6 mph - N/A   Overcast
7:53 AM 48.0 °F 42.1 °F 80% 30.11 in 10.0 mi NW 4.6 mph - N/A   Overcast
8:53 AM 48.9 °F 41.0 °F 74% 30.12 in 10.0 mi NNW 6.9 mph - N/A   Overcast
9:53 AM 50.0 °F 39.9 °F 68% 30.12 in 10.0 mi NNW 6.9 mph - N/A   Overcast
10:32 AM 51.8 °F 39.2 °F 62% 30.12 in 10.0 mi Variable 6.9 mph - N/A   Overcast
10:53 AM 52.0 °F 41.0 °F 66% 30.14 in 10.0 mi Variable 5.8 mph - N/A   Overcast
11:23 AM 51.8 °F 41.0 °F 67% 30.13 in 10.0 mi NW 5.8 mph - N/A   Overcast
11:53 AM 51.1 °F 39.9 °F 66% 30.14 in 10.0 mi NW 8.1 mph - N/A   Overcast
12:53 PM 53.1 °F 39.9 °F 61% 30.14 in 10.0 mi NW 8.1 mph - N/A   Overcast
1:53 PM 57.0 °F 39.9 °F 53% 30.13 in 10.0 mi WNW 6.9 mph 16.1 mph N/A   Mostly Cloudy
2:53 PM 55.9 °F 39.9 °F 55% 30.12 in 10.0 mi NNW 5.8 mph - N/A   Mostly Cloudy
3:53 PM 57.9 °F 39.0 °F 49% 30.11 in 10.0 mi Variable 6.9 mph 17.3 mph N/A   Partly Cloudy
4:53 PM 57.9 °F 39.0 °F 49% 30.10 in 10.0 mi NW 8.1 mph - N/A   Clear
5:53 PM 57.0 °F 39.0 °F 51% 30.12 in 10.0 mi NW 6.9 mph - N/A   Clear
6:53 PM 52.0 °F 41.0 °F 66% 30.13 in 10.0 mi Variable 3.5 mph - N/A   Clear
7:53 PM 46.9 °F 42.1 °F 83% 30.14 in 10.0 mi Calm Calm - N/A   Clear
8:53 PM 39.9 °F 37.9 °F 93% 30.14 in 10.0 mi Calm Calm - N/A   Clear
9:53 PM 39.9 °F 37.9 °F 93% 30.14 in 10.0 mi Calm Calm - N/A   Clear
10:53 PM 39.9 °F 37.9 °F 93% 30.15 in 10.0 mi Calm Calm - N/A   Clear
11:53 PM 42.1 °F 39.0 °F 89% 30.14 in 10.0 mi Calm Calm - N/A   Clear